Wind_Speed
22 25 32 26 28 29 28 18 20 22 24 31 34 35 36 32 34 29 32 26 21 19 22 16 19 16 15 12 18 22 16 14 16 16 16 16 17 17 17 16 15 13 12 8
23 27 27 27 32 32 35 35 27 24 24 22 20 36 45 41 36 34 30 25 15 21 10 18 15 20 13 13 7 25 23 18 17 15 13 16 15 16 16 15 10 11 9 9
26 26 28 29 30 34 38 35 36 33 29 33 22 24 36 40 37 39 34 29 13 17 18 19 11 17 17 14 9 14 28 24 18 14 15 14 14 14 13 12 13 12 12 23
16 21 26 30 34 36 37 34 39 40 34 32 35 32 24 24 27 34 39 36 30 25 20 13 16 17 19 15 12 6 21 24 20 18 14 14 14 12 8 9 13 13 27 22
13 15 19 26 32 35 32 36 40 41 40 38 34 30 26 24 17 21 33 37 34 25 16 15 10 18 20 13 15 7 15 19 22 19 16 15 10 7 8 6 11 26 22 20
18 17 19 22 27 33 32 37 36 38 42 43 38 33 36 24 10 13 29 25 30 23 21 15 8 14 20 17 20 11 13 17 20 19 19 16 14 27 13 7 24 23 22 22
20 20 17 17 23 31 34 34 35 37 40 46 45 40 39 37 29 20 19 28 31 29 30 16 13 13 8 15 12 8 11 19 17 19 19 16 12 15 18 23 27 25 24 19
20 19 17 14 16 25 30 34 33 33 35 43 48 45 44 42 42 42 28 31 33 32 32 24 22 23 15 12 10 7 5 21 21 25 20 15 7 13 26 32 31 28 21 14
21 18 18 17 14 19 26 30 31 34 34 43 36 43 47 46 44 41 34 28 38 41 39 30 28 22 17 17 12 3 6 17 22 26 21 14 12 16 22 30 31 25 23 13
20 19 18 17 16 17 21 25 29 32 34 38 38 39 45 46 43 40 34 26 27 34 39 36 29 27 20 10 4 1 3 3 25 27 21 18 17 18 21 29 30 26 24 20
20 20 19 18 17 19 21 25 26 29 32 33 32 39 39 45 44 41 37 23 35 42 36 39 39 30 24 16 12 7 3 3 14 28 27 21 21 23 24 28 30 28 26 25
19 20 21 20 17 19 22 24 26 29 32 34 39 31 37 41 43 44 44 49 45 39 33 39 39 34 28 24 18 10 16 11 10 22 30 27 24 24 26 29 29 28 29 24
20 20 22 21 18 20 21 24 27 29 32 34 37 33 39 39 41 42 47 48 47 44 40 38 42 37 34 31 25 26 20 45 23 21 28 30 29 29 29 30 33 32 29 26
21 19 24 23 18 18 19 23 25 26 30 33 38 32 38 37 39 41 45 48 48 48 46 42 40 44 40 37 33 26 22 18 21 21 20 32 33 31 33 33 30 30 30 28
29 22 23 23 23 22 23 24 27 26 27 31 32 33 36 34 36 38 40 45 49 48 48 45 44 41 46 42 39 33 27 22 16 12 22 22 27 38 37 36 36 36 33 31
33 29 26 25 24 23 24 24 25 25 25 27 28 31 27 34 34 36 39 42 45 48 50 49 47 46 43 49 45 38 31 24 25 10 13 21 33 32 33 36 40 42 41 39
33 37 30 28 25 31 30 25 28 25 23 23 23 24 23 34 31 33 37 39 42 45 47 50 51 49 47 46 49 45 41 36 34 29 39 19 39 39 40 37 40 40 40 38
39 40 37 33 32 29 33 30 22 28 29 28 25 23 24 27 29 29 32 35 39 43 46 48 49 52 50 49 49 50 49 46 41 39 37 43 36 33 34 38 40 39 39 40
34 44 40 38 37 35 32 32 30 29 33 33 33 29 28 32 32 30 31 36 35 37 40 44 47 49 53 53 51 52 53 50 48 49 45 38 37 34 33 34 30 29 29 30
41 45 45 41 38 38 39 34 32 27 32 36 35 33 32 34 35 32 38 35 37 37 39 40 42 46 49 53 56 54 56 56 54 51 51 44 42 41 39 35 32 29 28 28
56 47 46 42 41 40 40 38 31 37 27 32 38 37 33 33 34 29 33 35 38 41 42 39 39 41 42 49 54 58 57 59 58 57 56 51 48 43 42 39 38 35 34 32
54 49 43 42 43 41 43 37 38 34 33 32 36 36 30 34 30 28 30 34 39 37 39 38 40 43 44 44 48 54 59 60 62 60 62 58 53 49 49 46 44 43 40 36
63 47 44 50 41 42 41 41 40 35 36 38 35 34 31 36 33 30 29 31 34 32 34 33 34 37 42 45 45 48 54 59 62 64 62 58 58 56 56 53 51 48 46 43
57 52 53 53 46 41 38 39 37 39 35 40 39 39 37 32 33 29 31 32 33 30 30 31 33 36 39 42 44 46 50 53 59 64 65 65 63 59 60 63 60 57 53 51
56 57 54 49 45 40 35 39 40 37 37 41 42 40 35 32 30 32 30 32 33 33 31 29 30 31 32 36 40 44 48 51 53 60 65 68 68 65 65 68 68 64 62 59
59 57 54 51 49 41 37 42 36 38 39 43 42 42 37 35 32 33 32 32 32 33 32 29 26 25 25 26 29 35 42 48 52 54 58 65 71 74 73 70 72 72 69 67
Wind_Direction
244 241 239 241 234 225 220 230 220 232 226 220 219 227 230 231 230 245 260 274 303 311 316 348 357 349 352 353 218 195 197 195 187 186 193 209 225 220 222 217 194 207 205 217
250 246 245 237 234 229 224 221 232 240 227 215 245 237 234 235 230 234 251 270 268 291 323 318 334 352 341 342 308 220 214 206 196 200 214 223 222 205 196 193 203 193 192 175
256 254 247 242 236 233 230 226 228 237 223 195 206 208 228 232 237 240 248 256 273 276 277 306 330 343 346 338 334 246 224 219 211 210 213 224 203 186 203 205 189 193 160 151
261 255 250 244 236 236 234 232 224 228 227 221 226 236 229 239 244 244 247 247 240 247 266 283 309 333 349 331 344 283 209 215 207 203 214 194 186 181 196 226 205 179 156 160
274 272 260 249 245 240 237 234 229 226 226 224 223 221 207 215 228 251 241 241 243 248 248 237 303 298 326 343 351 317 203 197 199 204 196 184 187 198 235 263 172 151 163 176
281 286 274 255 245 241 233 234 232 229 225 228 226 214 203 203 189 259 235 233 243 233 243 241 242 239 321 308 337 320 204 202 204 200 188 189 178 212 216 201 160 159 165 165
281 284 288 263 247 239 232 230 228 229 228 226 227 221 205 219 200 214 241 215 225 228 237 231 227 228 235 292 281 306 222 195 196 177 190 191 204 216 207 172 168 163 154 156
276 282 290 285 255 238 235 233 229 227 226 232 226 224 220 216 215 224 234 215 211 229 242 222 209 240 201 243 308 296 240 202 197 180 197 208 211 168 166 170 169 170 158 136
270 276 280 287 272 245 239 237 232 232 236 239 235 225 226 222 220 223 228 224 223 229 231 235 221 226 204 210 268 294 347 214 206 193 191 202 198 176 174 180 178 168 159 113
265 272 272 282 269 245 236 234 231 230 232 234 234 232 228 227 224 223 226 233 247 240 228 223 220 226 222 199 318 332 252 249 217 206 211 210 204 194 188 186 185 177 168 173
270 261 272 270 270 244 233 236 233 234 235 236 239 237 229 230 226 224 219 183 233 239 227 219 219 214 222 203 173 128 46 262 216 217 214 219 211 204 197 191 193 196 190 177
275 266 270 266 268 244 237 231 233 233 235 236 234 235 230 231 228 223 220 220 232 231 226 224 220 213 214 221 210 232 214 303 267 232 221 219 224 223 215 206 208 211 214 206
270 270 265 265 266 251 244 236 228 230 232 234 238 229 234 229 231 223 224 224 228 230 230 226 215 216 219 220 221 181 200 219 241 264 233 228 233 232 231 222 215 222 218 224
267 271 259 264 273 269 253 245 235 231 231 231 237 232 234 231 231 228 225 224 226 226 228 228 225 215 220 222 224 202 185 201 223 234 229 225 224 230 228 233 232 231 238 239
263 264 262 261 245 253 240 240 232 225 227 233 238 228 232 234 233 234 229 228 228 228 228 228 230 224 216 219 221 222 194 193 190 216 247 244 231 227 231 230 236 238 238 235
255 264 263 255 256 255 249 241 240 230 232 233 234 235 221 237 232 236 233 231 229 229 230 229 229 229 226 220 220 218 220 201 191 218 260 267 237 236 228 233 239 241 244 246
255 257 255 252 254 232 251 249 239 235 235 240 238 238 229 236 234 233 238 235 235 233 231 230 229 228 228 225 222 218 217 213 224 209 207 194 237 236 228 226 232 232 235 238
256 253 252 251 250 254 249 250 244 240 240 241 245 240 236 242 242 241 238 239 238 237 236 234 231 229 227 226 224 223 220 216 219 218 217 222 226 228 227 229 232 235 237 238
240 256 252 248 249 253 249 249 242 241 236 240 245 244 235 246 246 244 246 247 241 243 240 239 239 234 229 228 224 224 223 223 221 220 222 228 231 232 229 228 227 227 228 232
224 248 252 250 245 245 250 247 249 248 244 238 240 243 241 244 250 248 247 246 248 245 243 243 241 239 237 230 229 226 224 225 229 232 234 234 235 230 230 232 227 224 224 226
219 234 241 251 239 239 247 243 245 245 247 240 238 240 241 243 245 241 245 243 242 246 247 247 247 246 239 238 232 229 227 227 230 232 232 234 235 239 234 231 230 227 227 227
213 221 225 243 236 239 243 243 242 245 242 241 239 238 237 243 242 242 246 246 249 246 249 249 247 247 247 239 236 234 230 229 231 232 234 234 238 238 231 231 234 232 232 229
213 215 225 237 240 234 238 237 240 239 242 242 239 241 239 247 249 250 251 252 255 252 246 247 247 248 250 249 240 237 235 234 232 232 234 235 237 236 235 232 234 235 232 235
214 218 227 234 239 237 235 239 240 241 241 244 242 243 247 251 257 250 248 253 254 250 247 248 249 250 251 251 250 244 239 236 236 234 232 233 234 234 237 233 235 236 235 234
213 224 228 228 236 233 237 239 239 241 241 244 242 244 247 253 251 251 255 254 249 248 250 246 245 251 254 254 253 251 247 242 239 236 234 235 234 235 236 235 233 234 236 235
215 218 223 227 227 230 232 245 236 238 244 247 245 246 247 249 249 253 255 250 247 246 240 236 242 248 255 256 254 252 250 247 244 240 238 235 235 235 236 234 235 235 235 236
Height
10895 10896 10896 10906 10909 10909 10913 10915 10917 10921 10927 10933 10939 10940 10940 10943 10947 10947 10950 10949 10950 10950 10950 10948 10946 10943 10939 10938 10939 10941 10943 10944 10945 10947 10950 10952 10953 10954 10956 10958 10961 10964 10968 10973
10888 10889 10891 10896 10898 10902 10904 10907 10911 10916 10923 10929 10937 10940 10936 10937 10941 10944 10945 10948 10951 10951 10951 10947 10946 10942 10940 10938 10936 10939 10943 10945 10947 10949 10950 10950 10951 10953 10956 10958 10961 10964 10969 10972
10880 10882 10885 10887 10890 10893 10896 10901 10907 10909 10917 10917 10912 10921 10928 10932 10934 10940 10943 10945 10948 10949 10948 10950 10948 10944 10940 10937 10935 10935 10940 10943 10946 10948 10948 10948 10952 10954 10956 10957 10960 10964 10969 10969
10873 10874 10876 10878 10881 10883 10886 10895 10899 10901 10908 10912 10913 10917 10927 10927 10931 10934 10938 10942 10946 10949 10950 10949 10947 10945 10941 10938 10935 10933 10936 10941 10945 10945 10945 10948 10953 10956 10957 10959 10960 10963 10969 10969
10868 10869 10869 10869 10872 10875 10883 10883 10887 10894 10896 10902 10906 10912 10920 10922 10925 10928 10931 10934 10939 10944 10949 10952 10947 10945 10942 10941 10937 10935 10935 10938 10942 10944 10945 10950 10953 10955 10958 10958 10962 10965 10970 10970
10862 10863 10862 10862 10863 10866 10872 10874 10880 10885 10891 10893 10898 10906 10912 10918 10919 10919 10916 10926 10932 10939 10943 10944 10945 10950 10945 10942 10939 10939 10936 10938 10941 10943 10945 10949 10953 10954 10958 10959 10964 10967 10971 10972
10855 10856 10856 10856 10856 10857 10860 10865 10871 10875 10881 10885 10890 10898 10909 10912 10908 10908 10916 10922 10928 10934 10937 10942 10943 10947 10945 10943 10945 10942 10938 10938 10942 10945 10944 10947 10951 10951 10953 10957 10963 10967 10972 10974
10848 10850 10850 10850 10850 10851 10853 10855 10863 10868 10870 10874 10878 10887 10896 10904 10909 10907 10914 10922 10926 10930 10931 10935 10936 10941 10943 10943 10942 10941 10939 10940 10944 10946 10946 10946 10948 10949 10951 10957 10961 10968 10975 10982
10842 10844 10844 10844 10844 10846 10847 10849 10855 10858 10865 10863 10873 10880 10884 10894 10901 10909 10913 10919 10921 10923 10928 10931 10933 10937 10942 10942 10945 10942 10942 10945 10948 10950 10950 10948 10949 10949 10951 10957 10961 10969 10980 10990
10836 10838 10839 10839 10840 10841 10842 10844 10847 10851 10854 10857 10861 10870 10877 10883 10892 10901 10908 10917 10920 10919 10920 10925 10929 10934 10937 10939 10943 10940 10941 10945 10949 10953 10955 10955 10952 10951 10952 10957 10965 10970 10979 10967
10830 10833 10834 10834 10834 10835 10837 10838 10842 10845 10848 10851 10857 10859 10868 10872 10882 10892 10900 10908 10899 10907 10912 10918 10924 10930 10936 10937 10938 10935 10940 10943 10946 10949 10951 10956 10955 10953 10954 10958 10965 10971 10976 10977
10824 10826 10827 10829 10829 10830 10832 10834 10836 10839 10841 10843 10846 10854 10857 10860 10870 10881 10888 10890 10889 10898 10904 10911 10917 10924 10931 10932 10930 10928 10945 10949 10946 10951 10953 10953 10959 10957 10956 10958 10961 10966 10971 10976
10819 10820 10821 10823 10824 10825 10826 10828 10830 10833 10835 10836 10838 10847 10848 10855 10860 10869 10875 10880 10884 10889 10895 10901 10907 10916 10924 10927 10927 10931 10934 10944 10938 10948 10954 10954 10956 10958 10957 10957 10960 10960 10964 10968
10813 10814 10815 10817 10819 10821 10822 10822 10824 10826 10829 10831 10830 10841 10841 10847 10851 10856 10862 10868 10873 10879 10884 10891 10897 10905 10915 10921 10923 10928 10931 10933 10940 10949 10947 10946 10946 10951 10953 10954 10956 10958 10958 10961
10808 10808 10809 10812 10814 10816 10816 10817 10818 10820 10823 10824 10827 10832 10835 10840 10843 10847 10853 10857 10863 10869 10875 10881 10887 10894 10904 10912 10918 10923 10930 10935 10942 10943 10944 10945 10945 10945 10947 10948 10950 10950 10952 10954
10800 10801 10804 10805 10808 10810 10810 10812 10815 10816 10817 10819 10821 10823 10835 10831 10836 10839 10843 10847 10852 10857 10863 10870 10877 10884 10891 10902 10910 10918 10923 10925 10924 10920 10927 10934 10945 10945 10942 10942 10946 10946 10945 10947
10791 10793 10797 10799 10802 10804 10805 10806 10809 10812 10813 10814 10817 10819 10824 10824 10830 10833 10835 10840 10843 10847 10853 10858 10865 10872 10881 10890 10900 10911 10917 10916 10909 10906 10938 10940 10939 10935 10933 10935 10940 10940 10940 10942
10782 10784 10788 10790 10793 10798 10797 10799 10804 10807 10809 10810 10812 10815 10817 10819 10821 10826 10829 10831 10834 10839 10843 10848 10854 10861 10870 10877 10887 10898 10905 10912 10911 10909 10920 10927 10925 10924 10922 10929 10933 10933 10934 10936
10770 10773 10778 10782 10784 10787 10790 10792 10795 10796 10800 10804 10806 10808 10812 10811 10815 10819 10822 10823 10828 10832 10835 10839 10843 10849 10857 10864 10873 10883 10892 10896 10902 10904 10907 10911 10912 10913 10919 10922 10924 10925 10926 10928
10757 10762 10767 10773 10777 10779 10778 10784 10789 10792 10792 10795 10798 10801 10804 10805 10808 10813 10811 10818 10819 10823 10824 10828 10832 10838 10844 10851 10859 10868 10877 10884 10888 10892 10895 10899 10902 10907 10911 10915 10917 10919 10919 10921
10744 10747 10757 10762 10767 10770 10771 10778 10782 10780 10788 10788 10789 10792 10797 10799 10800 10805 10804 10808 10811 10813 10816 10819 10823 10827 10831 10836 10843 10852 10860 10868 10875 10880 10884 10889 10894 10898 10900 10903 10907 10909 10912 10915
10731 10737 10746 10750 10757 10761 10761 10769 10770 10776 10778 10780 10782 10784 10790 10790 10794 10797 10797 10799 10801 10805 10807 10810 10813 10816 10818 10823 10829 10836 10844 10852 10858 10865 10870 10877 10882 10885 10889 10891 10896 10899 10904 10908
10719 10731 10734 10740 10746 10748 10751 10759 10762 10768 10771 10772 10775 10778 10783 10782 10786 10789 10790 10791 10793 10796 10799 10802 10804 10806 10808 10811 10817 10823 10829 10835 10842 10848 10855 10862 10867 10871 10876 10881 10884 10889 10894 10899
10705 10713 10720 10728 10737 10740 10748 10751 10756 10758 10764 10764 10768 10770 10772 10776 10778 10780 10782 10783 10785 10788 10791 10794 10796 10797 10799 10801 10805 10810 10814 10820 10825 10832 10839 10844 10851 10858 10862 10867 10872 10877 10882 10887
10698 10703 10713 10720 10726 10735 10739 10742 10746 10751 10755 10755 10759 10762 10766 10768 10771 10772 10774 10775 10777 10780 10783 10786 10788 10790 10791 10792 10795 10797 10800 10806 10810 10815 10822 10828 10835 10840 10845 10851 10858 10863 10869 10875
10679 10690 10698 10710 10714 10721 10729 10730 10737 10743 10744 10745 10751 10755 10758 10761 10762 10764 10767 10767 10770 10772 10775 10778 10780 10782 10784 10785 10786 10786 10789 10792 10795 10800 10805 10811 10817 10822 10829 10835 10841 10847 10854 10860